Home > Weather > Izhevsk > Past weeks

Flag for Russia Weather for the Past 2 Weeks in Izhevsk, Russia

Now
23 °F

Passing clouds.


Feels Like: 14 °F
Forecast: 11 / 24 °F
Wind: 8 mph from Southwest

Location: Perm'/Bolshoe Savino

Current Time: Feb 7, 2016 at 3:45:43 AM

Latest Report: Feb 7, 2016 at 3:00 AM


Visibility: N/A

Pressure: 29.92 "Hg

Humidity: 93%

Dew point: 21 °F

Location of IzhevskLocation

Historic Weather in Izhevsk — Graph

°F

Izhevsk Temperature Yesterday

Maximum temperature yesterday: 27 °F (at 2:30 PM)
Minimum temperature yesterday: 12 °F (at 7:30 AM)
Average temperature yesterday: 22 °F

High & Low Weather Summary for the Past Weeks

 TemperatureHumidityPressure
High36 °F (Feb 2, 12:00 AM)100% (Feb 2, 5:30 PM)30.77 "Hg (Feb 2, 5:30 PM)
Low-20 °F (Jan 28, 1:30 AM)58% (Jan 23, 10:00 PM)29.45 "Hg (Feb 4, 5:00 AM)
Average15 °F84%29.97 "Hg
* Reported Jan 23 2:00 AM — Feb 7 2:30 AM, Izhevsk, Weather by CustomWeather, © 2016

Note: Actual official high and low records may vary slightly from our data, if they occured in-between our weather recording intervals... More about our weather records

Advertising

Izhevsk Weather History for the Previous 24 Hours

 ConditionsComfort  
Time TempWeatherWind HumidityBarometerVisibility
2:30 AM
Sun, Feb 7
23 °FPartly cloudy.8 mph93%29.92 "HgN/A
2:00 AM25 °FMostly cloudy.8 mph86%29.92 "HgN/A
1:00 AM25 °FLight snow. Mostly cloudy.10 mph93%29.92 "HgN/A
12:00 AM25 °FSnow flurries. Passing clouds.8 mph93%29.92 "HgN/A
11:00 PM
Sat, Feb 6
25 °FSnow flurries. Passing clouds.8 mph93%29.92 "HgN/A
10:30 PM27 °FPassing clouds.10 mph86%29.92 "HgN/A
10:00 PM25 °FSnow flurries. Passing clouds.10 mph93%29.92 "HgN/A
9:30 PM25 °FSnow flurries. Passing clouds.10 mph93%29.89 "HgN/A
9:00 PM25 °FPassing clouds.10 mph86%29.89 "HgN/A
8:30 PM25 °FPassing clouds.10 mph86%29.89 "HgN/A
8:00 PM27 °FPassing clouds.10 mph80%29.89 "HgN/A
7:30 PM27 °FPassing clouds.6 mph80%29.89 "HgN/A
7:00 PM27 °FMostly cloudy.8 mph80%29.89 "HgN/A
6:30 PM27 °FLight snow. Mostly cloudy.8 mph80%29.89 "HgN/A
6:00 PM27 °FLight snow. Mostly cloudy.13 mph80%29.89 "HgN/A
5:30 PM27 °FSunny.13 mph80%29.89 "Hg10 mi
5:00 PM25 °FBroken clouds.13 mph80%29.89 "HgN/A
4:30 PM25 °FSunny.8 mph74%29.89 "Hg10 mi
4:00 PM27 °FSunny.13 mph69%29.89 "Hg10 mi
3:30 PM25 °FSunny.6 mph74%29.89 "Hg10 mi
3:00 PM27 °FPartly sunny.13 mph69%29.89 "HgN/A
2:30 PM27 °FSunny.8 mph74%29.89 "Hg10 mi
2:00 PM25 °FSunny.8 mph80%29.89 "Hg10 mi
1:30 PM25 °FSunny.6 mph74%29.89 "Hg10 mi
1:00 PM23 °FSunny.8 mph80%29.89 "Hg10 mi
12:30 PM23 °FSunny.8 mph80%29.89 "Hg10 mi
12:00 PM23 °FSunny.10 mph80%29.89 "Hg10 mi
11:30 AM25 °FPartly sunny.10 mph80%29.89 "HgN/A
11:00 AM23 °FPartly sunny.8 mph86%29.89 "HgN/A
10:30 AM21 °FPartly sunny.6 mph86%29.86 "HgN/A
10:00 AM16 °FPassing clouds.10 mph86%29.86 "HgN/A
9:30 AM16 °FPassing clouds.10 mph93%29.86 "HgN/A
9:00 AM14 °FClear.10 mph92%29.86 "Hg10 mi
8:00 AM14 °FClear.8 mph92%29.86 "Hg10 mi
7:30 AM12 °FClear.8 mph100%29.83 "Hg10 mi
7:00 AM14 °FClear.8 mph92%29.83 "Hg10 mi
6:00 AM16 °FPassing clouds.8 mph93%29.83 "HgN/A
5:00 AM14 °FPassing clouds.3 mph100%29.80 "HgN/A
4:30 AM16 °FPassing clouds.6 mph93%29.80 "HgN/A
4:00 AM19 °FPassing clouds.8 mph86%29.80 "HgN/A
3:30 AM19 °FPartly cloudy.8 mph86%29.80 "HgN/A
3:00 AM19 °FPassing clouds.8 mph86%29.77 "HgN/A
Weather by CustomWeather, © 2016

See weather overviewHow to use our weather pages